| time (UTC) | temp F | wind direction | speed MPH | gust MPH | rain 1hr in | rain 24hr in | rain mn in | humidity % | barometer mb |
| 20260901034601 | 71 | 83 | 0.0 | 3.0 | 0.00 | 0.00 | 0.00 | 44 | 1018.8 |
| 20260901034043 | 71 | 0 | 0.0 | 3.0 | 0.00 | 0.00 | 0.00 | 44 | 1018.8 |
| 20260901033543 | 72 | 0 | 0.0 | 4.0 | 0.00 | 0.00 | 0.00 | 43 | 1018.9 |
| 20260901033116 | 72 | 20 | 0.0 | 4.0 | 0.00 | 0.00 | 0.00 | 43 | 1018.8 |
| 20260901032543 | 72 | 61 | 0.0 | 3.0 | 0.00 | 0.00 | 0.00 | 43 | 1018.8 |
| 20260901032042 | 72 | 0 | 0.0 | 3.0 | 0.00 | 0.00 | 0.00 | 42 | 1018.8 |
| 20260901031601 | 72 | 0 | 0.0 | 3.0 | 0.00 | 0.00 | 0.00 | 43 | 1018.7 |
| 20260901031042 | 73 | 0 | 0.0 | 4.0 | 0.00 | 0.00 | 0.00 | 42 | 1018.7 |
| 20260901030543 | 73 | 0 | 0.0 | 4.0 | 0.00 | 0.00 | 0.00 | 42 | 1018.7 |
| 20260901030106 | 73 | 0 | 0.0 | 2.0 | 0.00 | 0.00 | 0.00 | 42 | 1018.7 |
| 20260901025543 | 73 | 0 | 0.0 | 2.0 | 0.00 | 0.00 | 0.00 | 41 | 1018.6 |
| 20260901025043 | 73 | 0 | 0.0 | 2.0 | 0.00 | 0.00 | 0.00 | 41 | 1018.6 |
| 20260901024600 | 73 | 0 | 0.0 | 3.0 | 0.00 | 0.00 | 0.00 | 41 | 1018.7 |
| 20260901024045 | 73 | 132 | 0.0 | 4.0 | 0.00 | 0.00 | 0.00 | 41 | 1018.7 |
| 20260901023544 | 73 | 132 | 0.0 | 5.0 | 0.00 | 0.00 | 0.00 | 40 | 1018.5 |
| 20260901023103 | 73 | 0 | 1.0 | 5.0 | 0.00 | 0.00 | 0.00 | 40 | 1018.5 |
| 20260901022544 | 73 | 0 | 0.0 | 2.0 | 0.00 | 0.00 | 0.00 | 38 | 1018.5 |
| 20260901022045 | 73 | 0 | 0.0 | 3.0 | 0.00 | 0.00 | 0.00 | 38 | 1018.6 |
| 20260901021605 | 73 | 0 | 0.0 | 3.0 | 0.00 | 0.00 | 0.00 | 37 | 1018.6 |
| 20260901021046 | 73 | 113 | 0.0 | 2.0 | 0.00 | 0.00 | 0.00 | 37 | 1018.6 |
| 20260901020545 | 73 | 351 | 0.0 | 1.0 | 0.00 | 0.00 | 0.00 | 37 | 1018.6 |
| 20260901020104 | 73 | 0 | 0.0 | 3.0 | 0.00 | 0.00 | 0.00 | 36 | 1018.7 |
| 20260901015546 | 73 | 0 | 0.0 | 3.0 | 0.00 | 0.00 | 0.00 | 36 | 1018.7 |
| 20260901015045 | 73 | 5 | 1.0 | 3.0 | 0.00 | 0.00 | 0.00 | 36 | 1018.7 |
| 20260901014607 | 73 | 14 | 1.0 | 4.0 | 0.00 | 0.00 | 0.00 | 35 | 1018.7 |
| 20260901014045 | 74 | 61 | 0.0 | 4.0 | 0.00 | 0.00 | 0.00 | 34 | 1018.8 |
| 20260901013543 | 74 | 85 | 1.0 | 4.0 | 0.00 | 0.00 | 0.00 | 34 | 1018.7 |
| 20260901013116 | 74 | 0 | 1.0 | 3.0 | 0.00 | 0.00 | 0.00 | 33 | 1018.7 |
| 20260901012542 | 74 | 0 | 0.0 | 2.0 | 0.00 | 0.00 | 0.00 | 33 | 1018.7 |
| 20260901012042 | 74 | 0 | 0.0 | 2.0 | 0.00 | 0.00 | 0.00 | 32 | 1018.7 |
| 20260901011615 | 75 | 0 | 0.0 | 2.0 | 0.00 | 0.00 | 0.00 | 32 | 1018.7 |
| 20260901011044 | 74 | 0 | 0.0 | 0.0 | 0.00 | 0.00 | 0.00 | 32 | 1018.7 |
| 20260901010545 | 74 | 0 | 0.0 | 6.0 | 0.00 | 0.00 | 0.00 | 32 | 1018.7 |
| 20260901010114 | 74 | 0 | 0.0 | 6.0 | 0.00 | 0.00 | 0.00 | 32 | 1018.6 |
| 20260901005543 | 75 | 0 | 1.0 | 6.0 | 0.00 | 0.00 | 0.00 | 32 | 1018.6 |
| 20260901005049 | 75 | 155 | 1.0 | 6.0 | 0.00 | 0.00 | 0.00 | 31 | 1018.6 |
| 20260901004604 | 75 | 155 | 1.0 | 6.0 | 0.00 | 0.00 | 0.00 | 31 | 1018.6 |
| 20260901004046 | 76 | 0 | 1.0 | 6.0 | 0.00 | 0.00 | 0.00 | 30 | 1018.6 |
| 20260901003545 | 76 | 45 | 1.0 | 9.0 | 0.00 | 0.00 | 0.00 | 30 | 1018.8 |
| 20260901003100 | 76 | 54 | 2.0 | 9.0 | 0.00 | 0.00 | 0.00 | 30 | 1018.8 |
| 20260901002543 | 77 | 59 | 1.0 | 5.0 | 0.00 | 0.00 | 0.00 | 29 | 1018.7 |
| 20260901002043 | 77 | 32 | 1.0 | 3.0 | 0.00 | 0.00 | 0.00 | 29 | 1018.7 |
| 20260901001557 | 78 | 64 | 0.0 | 2.0 | 0.00 | 0.00 | 0.00 | 28 | 1018.6 |
| 20260901001042 | 78 | 0 | 0.0 | 2.0 | 0.00 | 0.00 | 0.00 | 28 | 1018.7 |
| 20260901000542 | 78 | 0 | 0.0 | 3.0 | 0.00 | 0.00 | 0.00 | 28 | 1018.6 |
| 20260901000100 | 78 | 0 | 1.0 | 3.0 | 0.00 | 0.00 | 0.00 | 28 | 1018.6 |
| 20260831235542 | 78 | 21 | 0.0 | 2.0 | 0.00 | 0.00 | 0.00 | 28 | 1018.6 |
| 20260831235043 | 78 | 0 | 0.0 | 2.0 | 0.00 | 0.00 | 0.00 | 28 | 1018.6 |
| 20260831234559 | 78 | 0 | 0.0 | 2.0 | 0.00 | 0.00 | 0.00 | 28 | 1018.6 |
| 20260831234042 | 78 | 0 | 0.0 | 0.0 | 0.00 | 0.00 | 0.00 | 29 | 1018.5 |
| 20260831233543 | 78 | 0 | 0.0 | 1.0 | 0.00 | 0.00 | 0.00 | 29 | 1018.5 |
| 20260831233100 | 78 | 0 | 0.0 | 2.0 | 0.00 | 0.00 | 0.00 | 29 | 1018.5 |
| 20260831232542 | 78 | 0 | 0.0 | 3.0 | 0.00 | 0.00 | 0.00 | 29 | 1018.5 |
| 20260831232041 | 78 | 21 | 0.0 | 3.0 | 0.00 | 0.00 | 0.00 | 28 | 1018.5 |
| 20260831231601 | 78 | 21 | 0.0 | 3.0 | 0.00 | 0.00 | 0.00 | 29 | 1018.5 |
| 20260831231045 | 78 | 0 | 1.0 | 2.0 | 0.00 | 0.00 | 0.00 | 28 | 1018.5 |
| 20260831230545 | 78 | 289 | 1.0 | 2.0 | 0.00 | 0.00 | 0.00 | 28 | 1018.4 |
| 20260831230115 | 78 | 0 | 0.0 | 0.0 | 0.00 | 0.00 | 0.00 | 28 | 1018.5 |
| 20260831225545 | 78 | 0 | 0.0 | 0.0 | 0.00 | 0.00 | 0.00 | 28 | 1018.4 |
| 20260831225045 | 78 | 0 | 0.0 | 1.0 | 0.00 | 0.00 | 0.00 | 28 | 1018.4 |
| 20260831224558 | 78 | 0 | 0.0 | 1.0 | 0.00 | 0.00 | 0.00 | 28 | 1018.5 |
| 20260831224047 | 78 | 0 | 0.0 | 1.0 | 0.00 | 0.00 | 0.00 | 28 | 1018.4 |
| 20260831223549 | 78 | 0 | 0.0 | 0.0 | 0.00 | 0.00 | 0.00 | 28 | 1018.3 |
| 20260831223107 | 78 | 0 | 0.0 | 0.0 | 0.00 | 0.00 | 0.00 | 28 | 1018.3 |
| 20260831222545 | 78 | 0 | 0.0 | 1.0 | 0.00 | 0.00 | 0.00 | 28 | 1018.5 |
| 20260831222043 | 78 | 0 | 0.0 | 1.0 | 0.00 | 0.00 | 0.00 | 28 | 1018.5 |
| 20260831221610 | 78 | 0 | 0.0 | 1.0 | 0.00 | 0.00 | 0.00 | 28 | 1018.4 |
| 20260831221045 | 78 | 0 | 0.0 | 1.0 | 0.00 | 0.00 | 0.00 | 27 | 1018.5 |
| 20260831220545 | 79 | 0 | 0.0 | 2.0 | 0.00 | 0.00 | 0.00 | 27 | 1018.5 |
| 20260831220114 | 79 | 289 | 0.0 | 2.0 | 0.00 | 0.00 | 0.00 | 27 | 1018.4 |
| 20260831215544 | 79 | 0 | 0.0 | 2.0 | 0.00 | 0.00 | 0.00 | 28 | 1018.5 |
| 20260831215042 | 79 | 0 | 0.0 | 1.0 | 0.00 | 0.00 | 0.00 | 28 | 1018.5 |
| 20260831214612 | 79 | 0 | 0.0 | 0.0 | 0.00 | 0.00 | 0.00 | 28 | 1018.4 |
| 20260831214045 | 79 | 0 | 0.0 | 2.0 | 0.00 | 0.00 | 0.00 | 28 | 1018.5 |
| 20260831213545 | 79 | 0 | 0.0 | 2.0 | 0.00 | 0.00 | 0.00 | 28 | 1018.5 |
| 20260831213101 | 79 | 0 | 0.0 | 2.0 | 0.00 | 0.00 | 0.00 | 27 | 1018.5 |
| 20260831212543 | 79 | 0 | 0.0 | 3.0 | 0.00 | 0.00 | 0.00 | 27 | 1018.4 |
| 20260831212046 | 79 | 289 | 0.0 | 3.0 | 0.00 | 0.00 | 0.00 | 27 | 1018.3 |
| 20260831211600 | 80 | 0 | 0.0 | 3.0 | 0.00 | 0.00 | 0.00 | 27 | 1018.4 |
| 20260831211043 | 80 | 0 | 0.0 | 3.0 | 0.00 | 0.00 | 0.00 | 27 | 1018.4 |
| 20260831210544 | 80 | 305 | 0.0 | 4.0 | 0.00 | 0.00 | 0.00 | 27 | 1018.3 |
| 20260831210107 | 81 | 294 | 0.0 | 7.0 | 0.00 | 0.00 | 0.00 | 27 | 1018.3 |
| 20260831205547 | 82 | 251 | 0.0 | 7.0 | 0.00 | 0.00 | 0.00 | 27 | 1018.3 |
| 20260831205043 | 82 | 324 | 1.0 | 4.0 | 0.00 | 0.00 | 0.00 | 27 | 1018.2 |
| 20260831204557 | 83 | 282 | 0.0 | 3.0 | 0.00 | 0.00 | 0.00 | 26 | 1018.2 |
| 20260831204046 | 83 | 281 | 0.0 | 3.0 | 0.00 | 0.00 | 0.00 | 27 | 1018.1 |
| 20260831203542 | 83 | 281 | 0.0 | 2.0 | 0.00 | 0.00 | 0.00 | 26 | 1018.1 |
| 20260831203109 | 83 | 0 | 0.0 | 1.0 | 0.00 | 0.00 | 0.00 | 27 | 1018.1 |
| 20260831202543 | 84 | 0 | 0.0 | 1.0 | 0.00 | 0.00 | 0.00 | 26 | 1018.0 |
| 20260831202048 | 84 | 0 | 0.0 | 1.0 | 0.00 | 0.00 | 0.00 | 26 | 1018.0 |
| 20260831201608 | 84 | 0 | 0.0 | 2.0 | 0.00 | 0.00 | 0.00 | 26 | 1018.0 |
| 20260831201044 | 84 | 0 | 0.0 | 2.0 | 0.00 | 0.00 | 0.00 | 26 | 1018.0 |
| 20260831200546 | 85 | 0 | 0.0 | 1.0 | 0.00 | 0.00 | 0.00 | 25 | 1017.8 |
| 20260831200111 | 85 | 0 | 0.0 | 1.0 | 0.00 | 0.00 | 0.00 | 26 | 1017.8 |
| 20260831195544 | 85 | 0 | 0.0 | 1.0 | 0.00 | 0.00 | 0.00 | 25 | 1017.7 |
| 20260831195044 | 85 | 0 | 0.0 | 1.0 | 0.00 | 0.00 | 0.00 | 25 | 1017.7 |
| 20260831194615 | 85 | 0 | 0.0 | 1.0 | 0.00 | 0.00 | 0.00 | 25 | 1017.5 |
| 20260831194043 | 85 | 0 | 0.0 | 1.0 | 0.00 | 0.00 | 0.00 | 25 | 1017.5 |
| 20260831193543 | 85 | 0 | 0.0 | 1.0 | 0.00 | 0.00 | 0.00 | 26 | 1017.5 |
| 20260831193106 | 85 | 0 | 0.0 | 1.0 | 0.00 | 0.00 | 0.00 | 25 | 1017.5 |
| 20260831192544 | 85 | 0 | 0.0 | 1.0 | 0.00 | 0.00 | 0.00 | 25 | 1017.4 |
| 20260831192041 | 85 | 0 | 0.0 | 1.0 | 0.00 | 0.00 | 0.00 | 25 | 1017.3 |
| 20260831191555 | 86 | 0 | 0.0 | 1.0 | 0.00 | 0.00 | 0.00 | 25 | 1017.4 |
| 20260831191047 | 86 | 0 | 0.0 | 1.0 | 0.00 | 0.00 | 0.00 | 25 | 1017.3 |
| 20260831190543 | 86 | 0 | 0.0 | 2.0 | 0.00 | 0.00 | 0.00 | 25 | 1017.3 |
| 20260831190106 | 86 | 0 | 0.0 | 2.0 | 0.00 | 0.00 | 0.00 | 25 | 1017.3 |
| 20260831185544 | 86 | 0 | 0.0 | 2.0 | 0.00 | 0.00 | 0.00 | 25 | 1017.3 |
| 20260831185042 | 86 | 0 | 0.0 | 1.0 | 0.00 | 0.00 | 0.00 | 25 | 1017.2 |
| 20260831184600 | 87 | 0 | 0.0 | 2.0 | 0.00 | 0.00 | 0.00 | 25 | 1017.2 |
| 20260831184043 | 87 | 0 | 0.0 | 2.0 | 0.00 | 0.00 | 0.00 | 24 | 1017.2 |
| 20260831183543 | 87 | 0 | 0.0 | 2.0 | 0.00 | 0.00 | 0.00 | 24 | 1017.2 |
| 20260831183059 | 87 | 0 | 0.0 | 3.0 | 0.00 | 0.00 | 0.00 | 24 | 1017.2 |
| 20260831182546 | 87 | 0 | 0.0 | 3.0 | 0.00 | 0.00 | 0.00 | 24 | 1017.3 |
| 20260831182043 | 88 | 351 | 0.0 | 3.0 | 0.00 | 0.00 | 0.00 | 24 | 1017.2 |
| 20260831181603 | 88 | 267 | 0.0 | 4.0 | 0.00 | 0.00 | 0.00 | 24 | 1017.2 |
| 20260831181044 | 88 | 270 | 1.0 | 4.0 | 0.00 | 0.00 | 0.00 | 23 | 1017.2 |
| 20260831180544 | 88 | 0 | 0.0 | 3.0 | 0.00 | 0.00 | 0.00 | 23 | 1017.2 |
| 20260831180115 | 88 | 0 | 0.0 | 7.0 | 0.00 | 0.00 | 0.00 | 23 | 1017.3 |
| 20260831175545 | 89 | 0 | 0.0 | 7.0 | 0.00 | 0.00 | 0.00 | 23 | 1017.3 |
| 20260831175045 | 89 | 246 | 1.0 | 7.0 | 0.00 | 0.00 | 0.00 | 22 | 1017.3 |
| 20260831174559 | 89 | 0 | 0.0 | 2.0 | 0.00 | 0.00 | 0.00 | 22 | 1017.3 |
| 20260831174045 | 89 | 0 | 0.0 | 4.0 | 0.00 | 0.00 | 0.00 | 22 | 1017.3 |
| 20260831173545 | 89 | 198 | 0.0 | 8.0 | 0.00 | 0.00 | 0.00 | 22 | 1017.3 |
| 20260831173107 | 89 | 0 | 1.0 | 8.0 | 0.00 | 0.00 | 0.00 | 22 | 1017.4 |
| 20260831172544 | 89 | 294 | 1.0 | 5.0 | 0.00 | 0.00 | 0.00 | 21 | 1017.3 |
| 20260831172048 | 89 | 307 | 0.0 | 7.0 | 0.00 | 0.00 | 0.00 | 21 | 1017.4 |
| 20260831171602 | 89 | 117 | 2.0 | 7.0 | 0.00 | 0.00 | 0.00 | 21 | 1017.3 |
| 20260831171045 | 89 | 291 | 3.0 | 7.0 | 0.00 | 0.00 | 0.00 | 21 | 1017.4 |
| 20260831170545 | 90 | 247 | 1.0 | 5.0 | 0.00 | 0.00 | 0.00 | 21 | 1017.3 |
| 20260831165543 | 90 | 283 | 2.0 | 9.0 | 0.00 | 0.00 | 0.00 | 21 | 1017.5 |
| 20260831165044 | 90 | 277 | 1.0 | 9.0 | 0.00 | 0.00 | 0.00 | 21 | 1017.5 |
| 20260831164600 | 89 | 314 | 3.0 | 9.0 | 0.00 | 0.00 | 0.00 | 21 | 1017.4 |
| 20260831164043 | 90 | 230 | 1.0 | 6.0 | 0.00 | 0.00 | 0.00 | 20 | 1017.5 |
| 20260831163542 | 90 | 308 | 2.0 | 10.0 | 0.00 | 0.00 | 0.00 | 21 | 1017.6 |
| 20260831163110 | 90 | 251 | 1.0 | 12.0 | 0.00 | 0.00 | 0.00 | 20 | 1017.6 |
| 20260831162547 | 90 | 5 | 3.0 | 12.0 | 0.00 | 0.00 | 0.00 | 21 | 1017.5 |
| 20260831162045 | 88 | 215 | 4.0 | 14.0 | 0.00 | 0.00 | 0.00 | 21 | 1017.7 |
| 20260831161605 | 89 | 193 | 4.0 | 14.0 | 0.00 | 0.00 | 0.00 | 21 | 1017.6 |
| 20260831161042 | 90 | 222 | 2.0 | 12.0 | 0.00 | 0.00 | 0.00 | 19 | 1017.7 |
| 20260831160543 | 91 | 329 | 1.0 | 9.0 | 0.00 | 0.00 | 0.00 | 19 | 1017.8 |
| 20260831160108 | 91 | 315 | 2.0 | 9.0 | 0.00 | 0.00 | 0.00 | 19 | 1017.7 |
| 20260831155543 | 91 | 267 | 2.0 | 9.0 | 0.00 | 0.00 | 0.00 | 20 | 1017.8 |
| 20260831155044 | 90 | 4 | 3.0 | 9.0 | 0.00 | 0.00 | 0.00 | 21 | 1017.8 |
| 20260831154631 | 90 | 12 | 1.0 | 10.0 | 0.00 | 0.00 | 0.00 | 21 | 1017.8 |
| 20260831154046 | 91 | 182 | 2.0 | 10.0 | 0.00 | 0.00 | 0.00 | 21 | 1017.9 |
| 20260831153542 | 89 | 324 | 2.0 | 6.0 | 0.00 | 0.00 | 0.00 | 22 | 1017.8 |
| 20260831153059 | 89 | 0 | 1.0 | 11.0 | 0.00 | 0.00 | 0.00 | 22 | 1017.9 |
| 20260831152545 | 88 | 164 | 3.0 | 12.0 | 0.00 | 0.00 | 0.00 | 22 | 1018.0 |
| 20260831152045 | 88 | 166 | 6.0 | 13.0 | 0.00 | 0.00 | 0.00 | 23 | 1018.0 |
| 20260831151600 | 88 | 249 | 5.0 | 13.0 | 0.00 | 0.00 | 0.00 | 23 | 1018.1 |
| 20260831151042 | 89 | 237 | 6.0 | 11.0 | 0.00 | 0.00 | 0.00 | 22 | 1018.1 |
| 20260831150543 | 90 | 178 | 3.0 | 10.0 | 0.00 | 0.00 | 0.00 | 22 | 1018.1 |
| 20260831150110 | 89 | 0 | 2.0 | 9.0 | 0.00 | 0.00 | 0.00 | 23 | 1018.1 |
| 20260831145544 | 88 | 161 | 3.0 | 9.0 | 0.00 | 0.00 | 0.00 | 22 | 1018.1 |
| 20260831145049 | 88 | 0 | 3.0 | 10.0 | 0.00 | 0.00 | 0.00 | 22 | 1018.2 |
| 20260831144603 | 89 | 282 | 3.0 | 10.0 | 0.00 | 0.00 | 0.00 | 21 | 1018.2 |
| 20260831144042 | 90 | 186 | 2.0 | 9.0 | 0.00 | 0.00 | 0.00 | 21 | 1018.2 |
| 20260831143545 | 89 | 305 | 4.0 | 11.0 | 0.00 | 0.00 | 0.00 | 22 | 1018.3 |
| 20260831143112 | 90 | 341 | 4.0 | 11.0 | 0.00 | 0.00 | 0.00 | 21 | 1018.3 |
| 20260831142543 | 90 | 200 | 1.0 | 10.0 | 0.00 | 0.00 | 0.00 | 23 | 1018.2 |
| 20260831142044 | 89 | 193 | 5.0 | 9.0 | 0.00 | 0.00 | 0.00 | 23 | 1018.3 |
| 20260831141604 | 89 | 341 | 2.0 | 7.0 | 0.00 | 0.00 | 0.00 | 23 | 1018.3 |
| 20260831141045 | 88 | 232 | 1.0 | 8.0 | 0.00 | 0.00 | 0.00 | 23 | 1018.4 |
| 20260831140546 | 88 | 5 | 4.0 | 8.0 | 0.00 | 0.00 | 0.00 | 23 | 1018.5 |
| 20260831140058 | 89 | 218 | 1.0 | 8.0 | 0.00 | 0.00 | 0.00 | 22 | 1018.5 |
| 20260831135547 | 88 | 274 | 2.0 | 8.0 | 0.00 | 0.00 | 0.00 | 23 | 1018.6 |
| 20260831135043 | 89 | 0 | 2.0 | 9.0 | 0.00 | 0.00 | 0.00 | 22 | 1018.7 |
| 20260831134555 | 87 | 232 | 3.0 | 10.0 | 0.00 | 0.00 | 0.00 | 24 | 1018.7 |
| 20260831134042 | 87 | 153 | 4.0 | 10.0 | 0.00 | 0.00 | 0.00 | 24 | 1018.7 |
| 20260831133547 | 87 | 244 | 2.0 | 12.0 | 0.00 | 0.00 | 0.00 | 24 | 1018.8 |
| 20260831133103 | 87 | 231 | 2.0 | 12.0 | 0.00 | 0.00 | 0.00 | 25 | 1018.9 |
| 20260831132542 | 87 | 214 | 4.0 | 10.0 | 0.00 | 0.00 | 0.00 | 24 | 1019.0 |
| 20260831132043 | 86 | 107 | 4.0 | 10.0 | 0.00 | 0.00 | 0.00 | 25 | 1019.0 |
| 20260831131604 | 86 | 211 | 5.0 | 10.0 | 0.00 | 0.00 | 0.00 | 25 | 1019.0 |
| 20260831131042 | 87 | 151 | 3.0 | 16.0 | 0.00 | 0.00 | 0.00 | 25 | 1019.0 |
| 20260831130545 | 87 | 199 | 0.0 | 16.0 | 0.00 | 0.00 | 0.00 | 26 | 1019.1 |
| 20260831130100 | 85 | 188 | 3.0 | 10.0 | 0.00 | 0.00 | 0.00 | 26 | 1019.1 |
| 20260831125545 | 86 | 186 | 4.0 | 9.0 | 0.00 | 0.00 | 0.00 | 26 | 1019.2 |
| 20260831125043 | 86 | 189 | 1.0 | 10.0 | 0.00 | 0.00 | 0.00 | 26 | 1019.2 |
| 20260831124557 | 86 | 190 | 5.0 | 10.0 | 0.00 | 0.00 | 0.00 | 26 | 1019.3 |
| 20260831124045 | 87 | 215 | 1.0 | 5.0 | 0.00 | 0.00 | 0.00 | 25 | 1019.3 |
| 20260831123543 | 86 | 0 | 1.0 | 9.0 | 0.00 | 0.00 | 0.00 | 26 | 1019.4 |
| 20260831123057 | 84 | 0 | 3.0 | 10.0 | 0.00 | 0.00 | 0.00 | 27 | 1019.4 |
| 20260831122546 | 85 | 188 | 3.0 | 13.0 | 0.00 | 0.00 | 0.00 | 27 | 1019.5 |
| 20260831122043 | 84 | 229 | 5.0 | 13.0 | 0.00 | 0.00 | 0.00 | 28 | 1019.6 |
| 20260831121603 | 86 | 230 | 2.0 | 10.0 | 0.00 | 0.00 | 0.00 | 26 | 1019.5 |
| 20260831121043 | 86 | 330 | 2.0 | 10.0 | 0.00 | 0.00 | 0.00 | 26 | 1019.6 |
| 20260831120545 | 86 | 244 | 1.0 | 8.0 | 0.00 | 0.00 | 0.00 | 26 | 1019.7 |
| 20260831120119 | 85 | 257 | 2.0 | 8.0 | 0.00 | 0.00 | 0.00 | 27 | 1019.7 |
| 20260831115544 | 83 | 126 | 2.0 | 9.0 | 0.00 | 0.00 | 0.00 | 29 | 1019.7 |
| 20260831115045 | 83 | 202 | 4.0 | 10.0 | 0.00 | 0.00 | 0.00 | 29 | 1019.9 |
| 20260831114600 | 83 | 152 | 4.0 | 10.0 | 0.00 | 0.00 | 0.00 | 29 | 1019.8 |
| 20260831114126 | 83 | 176 | 5.0 | 10.0 | 0.00 | 0.00 | 0.00 | 29 | 1019.9 |
| 20260831113543 | 84 | 209 | 1.0 | 8.0 | 0.00 | 0.00 | 0.00 | 28 | 1020.0 |
| 20260831113108 | 82 | 351 | 3.0 | 11.0 | 0.00 | 0.00 | 0.00 | 30 | 1020.1 |
| 20260831112544 | 82 | 172 | 1.0 | 11.0 | 0.00 | 0.00 | 0.00 | 30 | 1020.2 |
| 20260831112045 | 83 | 218 | 4.0 | 11.0 | 0.00 | 0.00 | 0.00 | 30 | 1020.2 |
| 20260831111611 | 82 | 177 | 1.0 | 7.0 | 0.00 | 0.00 | 0.00 | 30 | 1020.2 |
| 20260831111043 | 83 | 180 | 1.0 | 7.0 | 0.00 | 0.00 | 0.00 | 29 | 1020.2 |
| 20260831110547 | 84 | 203 | 1.0 | 7.0 | 0.00 | 0.00 | 0.00 | 29 | 1020.3 |
| 20260831110104 | 82 | 197 | 2.0 | 7.0 | 0.00 | 0.00 | 0.00 | 30 | 1020.3 |
| 20260831105545 | 81 | 0 | 1.0 | 5.0 | 0.00 | 0.00 | 0.00 | 31 | 1020.3 |
| 20260831105042 | 81 | 162 | 3.0 | 5.0 | 0.00 | 0.00 | 0.00 | 30 | 1020.4 |
| 20260831104604 | 82 | 203 | 0.0 | 6.0 | 0.00 | 0.00 | 0.00 | 30 | 1020.4 |
| 20260831104044 | 81 | 166 | 2.0 | 6.0 | 0.00 | 0.00 | 0.00 | 30 | 1020.5 |
| 20260831103541 | 84 | 211 | 1.0 | 6.0 | 0.00 | 0.00 | 0.00 | 28 | 1020.4 |
| 20260831103106 | 84 | 0 | 0.0 | 6.0 | 0.00 | 0.00 | 0.00 | 28 | 1020.4 |
| 20260831102543 | 82 | 252 | 2.0 | 6.0 | 0.00 | 0.00 | 0.00 | 30 | 1020.4 |
| 20260831102042 | 81 | 199 | 2.0 | 6.0 | 0.00 | 0.00 | 0.00 | 30 | 1020.4 |
| 20260831101557 | 80 | 0 | 0.0 | 6.0 | 0.00 | 0.00 | 0.00 | 31 | 1020.4 |
| 20260831101046 | 79 | 248 | 1.0 | 7.0 | 0.00 | 0.00 | 0.00 | 32 | 1020.5 |
| 20260831100547 | 79 | 164 | 2.0 | 7.0 | 0.00 | 0.00 | 0.00 | 31 | 1020.5 |
| 20260831100051 | 79 | 126 | 1.0 | 4.0 | 0.00 | 0.00 | 0.00 | 31 | 1020.4 |
| 20260831095548 | 80 | 110 | 1.0 | 5.0 | 0.00 | 0.00 | 0.00 | 30 | 1020.4 |
| 20260831095046 | 79 | 49 | 1.0 | 6.0 | 0.00 | 0.00 | 0.00 | 31 | 1020.4 |
| 20260831094604 | 79 | 116 | 1.0 | 8.0 | 0.00 | 0.00 | 0.00 | 31 | 1020.3 |
| 20260831094048 | 79 | 183 | 2.0 | 10.0 | 0.00 | 0.00 | 0.00 | 31 | 1020.2 |
| 20260831093546 | 78 | 341 | 3.0 | 10.0 | 0.00 | 0.00 | 0.00 | 31 | 1020.3 |
| 20260831093102 | 77 | 3 | 4.0 | 10.0 | 0.00 | 0.00 | 0.00 | 31 | 1020.3 |
| 20260831092546 | 77 | 346 | 4.0 | 8.0 | 0.00 | 0.00 | 0.00 | 31 | 1020.3 |
| 20260831092045 | 78 | 10 | 3.0 | 8.0 | 0.00 | 0.00 | 0.00 | 31 | 1020.3 |
| 20260831091603 | 77 | 52 | 4.0 | 9.0 | 0.00 | 0.00 | 0.00 | 31 | 1020.4 |
| 20260831091047 | 78 | 46 | 3.0 | 9.0 | 0.00 | 0.00 | 0.00 | 31 | 1020.4 |
| 20260831090545 | 78 | 0 | 0.0 | 6.0 | 0.00 | 0.00 | 0.00 | 32 | 1020.2 |
| 20260831090059 | 78 | 351 | 3.0 | 6.0 | 0.00 | 0.00 | 0.00 | 31 | 1020.2 |
| 20260831085543 | 77 | 0 | 0.0 | 5.0 | 0.00 | 0.00 | 0.00 | 32 | 1020.3 |
| 20260831085043 | 76 | 58 | 1.0 | 9.0 | 0.00 | 0.00 | 0.00 | 33 | 1020.3 |
| 20260831084608 | 75 | 346 | 3.0 | 10.0 | 0.00 | 0.00 | 0.00 | 34 | 1020.2 |
| 20260831084045 | 75 | 357 | 4.0 | 10.0 | 0.00 | 0.00 | 0.00 | 35 | 1020.2 |
| 20260831083545 | 74 | 57 | 5.0 | 10.0 | 0.00 | 0.00 | 0.00 | 35 | 1020.2 |
| 20260831083104 | 75 | 24 | 4.0 | 10.0 | 0.00 | 0.00 | 0.00 | 35 | 1020.2 |
| 20260831082545 | 74 | 7 | 2.0 | 8.0 | 0.00 | 0.00 | 0.00 | 36 | 1020.2 |
| 20260831082045 | 74 | 152 | 2.0 | 8.0 | 0.00 | 0.00 | 0.00 | 35 | 1020.2 |
| 20260831081605 | 74 | 24 | 1.0 | 4.0 | 0.00 | 0.00 | 0.00 | 36 | 1020.2 |
| 20260831081042 | 74 | 137 | 0.0 | 5.0 | 0.00 | 0.00 | 0.00 | 36 | 1020.2 |
| 20260831080541 | 74 | 0 | 1.0 | 5.0 | 0.00 | 0.00 | 0.00 | 36 | 1020.2 |
| 20260831080137 | 74 | 159 | 0.0 | 7.0 | 0.00 | 0.00 | 0.00 | 36 | 1020.1 |
| 20260831075542 | 74 | 23 | 2.0 | 7.0 | 0.00 | 0.00 | 0.00 | 36 | 1020.1 |
| 20260831075045 | 73 | 0 | 1.0 | 6.0 | 0.00 | 0.00 | 0.00 | 38 | 1020.1 |
| 20260831074606 | 73 | 0 | 1.0 | 6.0 | 0.00 | 0.00 | 0.00 | 38 | 1020.1 |
| 20260831074042 | 72 | 0 | 2.0 | 6.0 | 0.00 | 0.00 | 0.00 | 38 | 1020.1 |
| 20260831073547 | 73 | 0 | 0.0 | 6.0 | 0.00 | 0.00 | 0.00 | 39 | 1020.1 |
| 20260831073117 | 72 | 53 | 3.0 | 7.0 | 0.00 | 0.00 | 0.00 | 39 | 1020.0 |
| 20260831072541 | 72 | 57 | 1.0 | 7.0 | 0.00 | 0.00 | 0.00 | 40 | 1019.9 |
| 20260831072043 | 71 | 359 | 3.0 | 7.0 | 0.00 | 0.00 | 0.00 | 41 | 1019.9 |
| 20260831071559 | 71 | 14 | 3.0 | 7.0 | 0.00 | 0.00 | 0.00 | 42 | 1019.9 |
| 20260831071042 | 71 | 341 | 3.0 | 6.0 | 0.00 | 0.00 | 0.00 | 45 | 1019.8 |
| 20260831070546 | 71 | 341 | 1.0 | 4.0 | 0.00 | 0.00 | 0.00 | 43 | 1019.7 |
| 20260831065543 | 71 | 330 | 0.0 | 3.0 | 0.00 | 0.00 | 0.00 | 44 | 1019.7 |
| 20260831065046 | 70 | 0 | 0.0 | 2.0 | 0.00 | 0.00 | 0.00 | 48 | 1019.8 |
| 20260831064608 | 69 | 0 | 0.0 | 2.0 | 0.00 | 0.00 | 0.00 | 50 | 1019.7 |
| 20260831064043 | 68 | 0 | 0.0 | 2.0 | 0.00 | 0.00 | 0.00 | 51 | 1019.8 |
| 20260831063544 | 68 | 293 | 0.0 | 2.0 | 0.00 | 0.00 | 0.00 | 50 | 1019.8 |
| 20260831063106 | 68 | 3 | 0.0 | 2.0 | 0.00 | 0.00 | 0.00 | 49 | 1019.8 |
| 20260831062543 | 68 | 0 | 0.0 | 1.0 | 0.00 | 0.00 | 0.00 | 49 | 1019.7 |
| 20260831062047 | 68 | 0 | 0.0 | 2.0 | 0.00 | 0.00 | 0.00 | 50 | 1019.7 |
| 20260831061557 | 68 | 0 | 0.0 | 2.0 | 0.00 | 0.00 | 0.00 | 48 | 1019.7 |
| 20260831061043 | 69 | 3 | 0.0 | 2.0 | 0.00 | 0.00 | 0.00 | 46 | 1019.6 |
| 20260831060542 | 68 | 0 | 0.0 | 2.0 | 0.00 | 0.00 | 0.00 | 47 | 1019.6 |
| 20260831060101 | 68 | 0 | 0.0 | 2.0 | 0.00 | 0.00 | 0.00 | 48 | 1019.5 |
| 20260831055545 | 68 | 0 | 0.0 | 2.0 | 0.00 | 0.00 | 0.00 | 48 | 1019.5 |
| 20260831055044 | 68 | 0 | 0.0 | 3.0 | 0.00 | 0.00 | 0.00 | 47 | 1019.4 |
| 20260831054601 | 68 | 0 | 0.0 | 3.0 | 0.00 | 0.00 | 0.00 | 48 | 1019.4 |
| 20260831054045 | 68 | 3 | 0.0 | 3.0 | 0.00 | 0.00 | 0.00 | 49 | 1019.4 |
| 20260831053545 | 67 | 0 | 0.0 | 3.0 | 0.00 | 0.00 | 0.00 | 50 | 1019.4 |
| 20260831053058 | 67 | 0 | 1.0 | 3.0 | 0.00 | 0.00 | 0.00 | 51 | 1019.5 |
| 20260831052545 | 69 | 3 | 1.0 | 3.0 | 0.00 | 0.00 | 0.00 | 48 | 1019.4 |
| 20260831052045 | 70 | 0 | 0.0 | 2.0 | 0.00 | 0.00 | 0.00 | 44 | 1019.4 |
| 20260831051603 | 70 | 0 | 0.0 | 3.0 | 0.00 | 0.00 | 0.00 | 42 | 1019.4 |
| 20260831051045 | 70 | 0 | 0.0 | 3.0 | 0.00 | 0.00 | 0.00 | 43 | 1019.4 |
| 20260831050545 | 70 | 0 | 0.0 | 3.0 | 0.00 | 0.00 | 0.00 | 42 | 1019.4 |
| 20260831050103 | 70 | 0 | 0.0 | 1.0 | 0.00 | 0.00 | 0.00 | 43 | 1019.3 |
| 20260831045545 | 71 | 0 | 0.0 | 4.0 | 0.00 | 0.00 | 0.00 | 42 | 1019.3 |
| 20260831045044 | 71 | 0 | 0.0 | 4.0 | 0.00 | 0.00 | 0.00 | 42 | 1019.2 |
| 20260831044602 | 70 | 0 | 0.0 | 3.0 | 0.00 | 0.00 | 0.00 | 43 | 1019.1 |
| 20260831044042 | 70 | 0 | 0.0 | 3.0 | 0.00 | 0.00 | 0.00 | 43 | 1019.1 |
| 20260831043544 | 70 | 0 | 0.0 | 5.0 | 0.00 | 0.00 | 0.00 | 44 | 1019.1 |
| 20260831043057 | 70 | 0 | 0.0 | 5.0 | 0.00 | 0.00 | 0.00 | 44 | 1019.1 |
| 20260831042545 | 70 | 33 | 0.0 | 5.0 | 0.00 | 0.00 | 0.00 | 44 | 1019.1 |
| 20260831042047 | 69 | 356 | 0.0 | 4.0 | 0.00 | 0.00 | 0.00 | 47 | 1019.1 |
| 20260831041610 | 69 | 67 | 0.0 | 4.0 | 0.00 | 0.00 | 0.00 | 50 | 1018.9 |
| 20260831041050 | 69 | 0 | 0.0 | 4.0 | 0.00 | 0.00 | 0.00 | 51 | 1018.9 |
| 20260831040546 | 69 | 341 | 1.0 | 4.0 | 0.00 | 0.00 | 0.00 | 49 | 1018.9 |
| 20260831040107 | 70 | 319 | 1.0 | 4.0 | 0.00 | 0.00 | 0.00 | 48 | 1019.0 |
| 20260831035544 | 70 | 346 | 0.0 | 2.0 | 0.00 | 0.00 | 0.00 | 47 | 1019.0 |
| 20260831035045 | 70 | 0 | 0.0 | 1.0 | 0.00 | 0.00 | 0.00 | 46 | 1019.0 |